Wind_Speed
12 11 11 10 10 10 10 10 10 11 12 13 14 16 16 16 18 19 19 20 21 21 20 18 17 15 15 15 16 17 18 20 22 23 25 26 27 28 29 30 31 32 33 33
11 10 10 10 9 8 8 8 9 9 10 10 12 14 14 14 15 15 15 15 15 16 15 14 13 13 13 15 16 17 19 21 23 24 26 28 29 30 31 32 32 33 33 33
10 9 8 8 7 7 7 8 8 8 9 10 11 11 11 12 12 12 12 11 12 11 11 12 12 12 13 15 17 18 20 22 24 26 27 29 30 31 32 33 33 34 34 34
7 7 7 7 7 7 7 8 9 10 10 10 10 10 10 10 9 9 9 10 11 10 10 11 13 12 14 16 17 19 21 23 25 27 29 30 31 32 33 34 34 35 35 35
6 6 7 8 8 8 9 9 9 9 9 9 9 9 8 8 8 8 9 9 8 7 8 10 12 13 14 17 19 20 22 24 26 28 30 31 32 33 34 34 35 35 36 36
7 7 8 8 8 9 9 9 8 8 8 7 7 7 7 8 8 7 7 8 6 7 8 9 11 13 15 17 19 21 23 25 27 29 30 31 32 33 33 34 34 35 35 36
7 8 8 8 8 8 9 8 8 8 7 6 6 6 7 7 7 6 7 7 6 7 8 10 12 14 16 18 20 22 24 26 28 30 31 31 32 32 33 33 34 34 35 36
7 8 8 9 9 9 9 9 9 9 7 6 6 6 6 6 7 7 7 7 7 8 10 12 13 15 17 19 21 23 25 28 29 31 32 32 32 32 32 33 33 34 35 35
8 8 8 8 9 9 9 9 9 8 6 6 5 6 6 7 7 8 8 8 9 10 12 13 15 17 19 20 23 25 27 29 31 32 33 33 33 33 34 34 34 34 34 34
9 9 8 7 7 8 8 9 8 7 6 4 4 5 6 7 8 8 8 8 9 11 13 15 17 19 21 23 25 28 30 32 33 33 34 34 34 35 35 35 34 34 35 35
9 9 8 7 7 7 7 7 7 6 6 5 4 5 6 7 8 9 9 10 12 13 15 17 19 21 23 25 28 30 32 33 34 35 35 35 36 36 36 35 35 36 35 35
9 9 8 7 7 6 6 7 7 6 6 5 6 6 7 9 10 11 12 13 15 16 18 20 22 23 25 27 30 32 34 35 35 35 36 36 37 37 36 36 37 36 35 35
10 9 8 7 7 7 7 7 6 6 6 7 8 9 9 10 12 13 15 16 18 19 21 22 24 25 27 30 32 34 35 36 36 36 37 37 38 38 37 37 37 36 36 36
11 10 9 8 8 8 7 7 6 7 7 9 9 11 12 13 14 16 18 19 20 21 22 24 25 27 29 31 34 35 36 36 37 37 38 38 39 38 38 38 37 37 37 36
10 10 9 9 9 9 8 7 8 8 9 11 12 13 14 15 17 18 19 21 22 22 23 25 26 29 31 33 34 35 36 37 38 38 39 39 40 39 39 38 38 38 37 37
10 10 10 10 10 10 9 9 9 10 10 12 13 14 16 17 18 20 21 22 23 24 25 26 28 30 32 34 35 36 37 38 39 39 40 40 40 40 40 40 39 39 38 38
11 11 11 10 10 10 9 10 10 10 11 13 14 16 18 18 19 20 21 22 23 25 26 28 30 32 34 35 36 37 37 38 39 40 41 41 40 41 41 40 40 40 39 39
11 11 10 10 10 9 9 9 10 11 12 14 16 18 19 20 20 21 22 23 24 26 27 29 31 33 35 36 37 37 38 39 40 41 41 41 41 41 41 41 41 41 40 38
11 10 10 9 8 8 9 10 11 12 13 15 17 19 20 20 20 21 22 23 25 27 28 30 32 34 36 36 37 37 38 39 41 42 42 42 42 42 42 41 41 41 39 37
11 11 11 10 10 9 10 11 12 13 14 16 18 19 19 20 20 21 23 24 26 27 29 31 33 35 36 37 37 37 38 40 41 42 42 42 42 42 42 42 41 40 38 36
13 13 12 12 11 10 12 12 13 15 16 17 18 19 19 20 21 22 24 25 26 28 30 31 34 35 36 38 38 38 39 41 42 42 43 43 43 42 42 42 41 39 37 36
14 14 14 14 14 13 13 14 15 16 17 18 19 20 20 21 23 23 25 26 27 29 30 32 34 35 37 38 39 39 40 42 42 43 43 43 43 42 42 42 41 38 37 36
16 16 16 15 15 15 15 15 16 17 18 20 21 22 22 23 24 25 26 27 28 30 31 33 35 36 37 39 40 40 42 42 43 43 43 43 42 42 42 41 40 38 37 36
18 18 18 17 16 17 18 18 19 19 20 21 22 23 24 24 25 26 27 28 29 31 32 34 35 37 38 39 40 41 42 43 44 44 43 43 43 43 43 41 39 37 37 36
20 21 21 20 20 20 19 20 20 21 22 22 23 24 25 25 26 27 28 29 30 31 33 34 36 37 38 39 41 42 43 43 44 44 44 43 43 43 42 40 39 37 36 36
22 24 24 23 22 22 21 21 22 23 23 24 24 25 26 26 27 28 29 30 31 33 34 35 37 38 39 40 41 42 43 44 44 45 45 44 43 43 41 39 37 36 36 35
Wind_Direction
309 307 304 302 300 299 296 291 287 289 290 284 284 289 288 279 277 280 280 280 277 279 284 287 290 293 293 294 297 299 301 301 302 301 301 301 300 299 296 295 291 288 287 286
302 304 302 299 301 302 299 297 298 302 302 295 294 299 296 289 284 285 284 289 282 279 280 287 288 294 297 300 303 305 305 304 303 303 304 303 302 301 300 298 295 292 290 287
308 304 298 302 303 306 310 312 307 308 305 307 306 307 310 301 295 291 291 291 288 288 280 280 292 296 300 304 306 308 309 308 308 307 306 305 303 302 301 299 297 295 293 290
310 306 297 298 302 306 304 306 308 308 311 315 317 317 317 315 312 303 302 304 301 293 288 288 296 297 301 306 309 310 311 312 312 310 309 307 305 303 301 299 297 295 293 291
306 298 294 295 294 295 302 304 308 312 320 327 327 328 332 327 324 319 316 315 309 298 297 298 302 303 305 309 311 312 312 312 311 310 309 307 305 304 302 300 298 296 294 292
298 294 291 288 289 292 301 304 307 319 331 339 339 331 337 339 334 327 321 324 317 301 302 304 307 308 309 310 311 311 311 311 311 311 310 309 307 305 303 301 298 297 295 293
298 293 292 287 283 292 301 308 317 320 326 337 337 333 337 342 338 336 332 330 331 319 310 311 311 310 312 312 313 313 313 313 314 314 313 311 309 307 304 301 299 297 296 295
299 295 291 288 288 297 301 310 320 321 321 324 323 322 328 332 334 331 329 325 320 317 314 314 315 315 317 318 318 319 318 318 318 317 316 314 313 311 308 305 302 300 298 296
295 299 296 290 288 292 299 306 318 321 322 318 316 316 316 319 323 323 320 317 315 315 316 319 322 323 323 323 323 323 322 322 322 321 320 318 317 315 312 310 307 304 302 299
293 300 298 293 295 290 296 305 313 319 329 336 322 312 318 318 320 324 321 318 318 320 322 323 325 327 328 328 328 327 327 326 325 324 323 322 320 319 317 314 311 309 306 304
295 301 301 300 301 295 297 312 314 316 330 335 333 330 329 327 325 326 325 324 325 327 328 329 330 332 333 333 332 330 329 328 328 327 326 325 324 322 320 317 314 312 309 306
294 297 299 298 297 291 294 308 311 314 329 334 337 342 335 333 329 326 326 328 329 330 332 334 335 336 335 335 333 332 332 332 331 330 329 328 326 325 322 320 317 315 312 309
285 285 288 285 283 282 284 296 306 314 323 332 336 342 337 334 328 326 328 331 333 335 337 338 338 338 336 335 335 335 334 334 333 332 331 330 328 326 324 322 320 317 314 311
275 278 277 276 279 280 278 283 298 306 317 325 329 332 333 332 329 328 331 334 336 337 338 339 339 338 337 337 336 336 335 335 334 333 332 331 330 328 326 324 322 319 316 313
272 274 274 273 274 278 278 283 291 301 310 318 323 325 329 329 329 330 332 335 337 338 339 339 339 338 338 337 336 336 336 336 335 334 333 332 331 330 328 326 324 321 319 316
272 273 273 273 277 278 279 283 289 296 304 313 318 321 324 327 329 329 331 334 335 337 339 339 339 338 337 336 336 336 336 336 336 335 334 334 333 331 329 328 325 323 320 318
269 273 275 277 281 284 281 284 289 294 299 307 313 316 320 323 325 327 329 332 334 337 338 339 339 338 337 336 336 335 335 336 336 336 336 335 334 333 331 329 328 325 322 319
267 272 275 277 282 287 290 285 289 296 301 305 309 313 317 319 322 325 328 331 334 336 337 338 338 338 337 337 336 336 335 336 337 337 336 335 334 333 332 330 329 327 324 321
264 268 273 278 282 288 288 290 294 298 301 304 308 312 314 316 321 324 327 330 332 334 336 336 336 336 336 336 336 336 336 337 337 337 337 336 335 334 332 331 330 328 326 324
260 267 271 276 282 288 289 292 298 301 304 305 308 312 315 317 321 324 326 329 331 333 333 334 334 335 336 336 336 336 337 337 337 338 337 336 335 334 334 333 332 330 329 327
258 264 270 274 280 287 291 297 300 304 307 307 309 312 315 318 321 323 325 327 329 331 331 332 333 334 335 336 336 336 336 336 336 337 337 336 334 334 334 334 333 331 330 330
259 263 268 273 279 285 289 299 302 304 305 307 309 312 315 317 319 321 323 325 327 328 329 330 332 333 335 336 337 337 336 336 336 336 336 335 335 335 335 334 334 332 331 331
259 265 271 275 281 287 294 299 300 301 303 305 308 310 313 315 317 318 321 323 324 325 326 328 330 331 333 335 336 336 336 337 337 337 336 336 336 336 335 335 334 333 333 332
265 270 274 279 283 290 294 297 298 299 301 302 304 306 308 311 313 315 318 320 321 323 324 326 328 331 333 334 335 335 336 336 336 337 336 336 336 336 335 335 335 334 334 334
268 272 275 279 283 286 289 291 293 295 297 299 300 302 304 307 310 313 315 318 320 322 324 326 328 330 331 333 334 335 335 335 335 336 336 336 335 336 336 335 335 334 335 335
264 267 271 275 278 282 286 287 289 291 293 294 296 299 301 305 307 310 313 316 318 321 323 324 326 327 329 330 332 333 334 334 334 335 335 335 335 336 336 335 335 335 336 336
Height
5868 5867 5865 5864 5863 5862 5860 5859 5858 5856 5855 5854 5853 5851 5850 5849 5849 5848 5847 5846 5845 5845 5845 5845 5845 5844 5843 5842 5841 5840 5839 5837 5835 5833 5831 5829 5827 5825 5823 5821 5819 5818 5817 5815
5867 5865 5864 5862 5861 5860 5859 5858 5857 5855 5853 5852 5851 5849 5847 5846 5845 5844 5843 5842 5841 5841 5841 5841 5841 5841 5840 5839 5837 5836 5835 5833 5831 5829 5826 5824 5821 5819 5816 5814 5812 5810 5808 5806
5865 5864 5862 5861 5860 5859 5858 5857 5856 5854 5852 5850 5849 5848 5846 5844 5842 5841 5840 5839 5839 5838 5838 5839 5838 5838 5837 5836 5834 5833 5831 5828 5826 5823 5820 5817 5814 5812 5809 5806 5804 5801 5799 5797
5863 5863 5862 5861 5860 5859 5858 5857 5855 5853 5851 5849 5848 5846 5844 5842 5840 5839 5838 5837 5836 5836 5836 5836 5836 5835 5834 5832 5831 5829 5826 5824 5821 5818 5814 5811 5808 5805 5802 5799 5796 5793 5791 5788
5862 5861 5860 5860 5859 5858 5857 5856 5854 5852 5850 5848 5847 5845 5844 5841 5839 5837 5836 5835 5834 5834 5834 5834 5834 5833 5831 5829 5827 5825 5822 5819 5816 5813 5809 5805 5801 5797 5794 5791 5788 5785 5782 5779
5861 5860 5859 5858 5858 5857 5856 5855 5853 5852 5850 5848 5847 5845 5843 5841 5839 5837 5836 5835 5834 5833 5833 5832 5831 5830 5828 5826 5824 5821 5818 5815 5812 5807 5803 5799 5794 5790 5786 5783 5779 5776 5773 5770
5860 5859 5857 5857 5856 5855 5855 5854 5853 5851 5850 5848 5847 5845 5844 5841 5839 5837 5836 5835 5833 5832 5832 5831 5829 5827 5825 5823 5820 5817 5814 5810 5806 5801 5796 5792 5787 5783 5779 5775 5771 5767 5764 5760
5858 5858 5856 5855 5855 5854 5853 5852 5852 5850 5849 5848 5846 5845 5844 5841 5839 5837 5836 5834 5833 5832 5830 5829 5826 5824 5822 5819 5816 5812 5808 5804 5799 5794 5789 5784 5780 5775 5770 5766 5762 5758 5754 5750
5857 5856 5855 5853 5853 5852 5851 5850 5850 5849 5847 5847 5846 5844 5843 5841 5839 5837 5835 5834 5832 5830 5828 5826 5824 5821 5818 5814 5811 5807 5802 5798 5792 5787 5782 5777 5772 5767 5762 5757 5752 5748 5744 5740
5855 5854 5853 5852 5851 5850 5850 5849 5848 5847 5846 5845 5844 5843 5842 5840 5838 5836 5834 5833 5831 5828 5826 5823 5820 5816 5813 5809 5805 5800 5796 5790 5785 5780 5774 5769 5763 5758 5752 5747 5742 5738 5734 5730
5852 5852 5851 5850 5849 5848 5848 5848 5846 5846 5845 5844 5843 5844 5840 5839 5836 5834 5833 5831 5828 5826 5823 5819 5815 5812 5808 5804 5799 5794 5789 5784 5778 5772 5766 5760 5755 5749 5743 5738 5733 5729 5724 5719
5850 5850 5849 5848 5848 5847 5846 5846 5845 5845 5844 5842 5841 5843 5839 5837 5834 5832 5830 5828 5825 5822 5818 5814 5810 5806 5802 5798 5793 5788 5782 5777 5771 5765 5759 5753 5747 5741 5735 5730 5724 5719 5714 5710
5848 5848 5847 5847 5848 5846 5845 5844 5844 5843 5842 5841 5840 5841 5837 5834 5832 5829 5827 5824 5821 5817 5813 5809 5805 5801 5797 5792 5787 5782 5776 5770 5764 5758 5752 5746 5739 5733 5727 5721 5715 5710 5705 5700
5845 5845 5845 5845 5844 5843 5843 5842 5842 5841 5840 5839 5837 5836 5834 5831 5829 5826 5823 5820 5816 5812 5809 5805 5801 5796 5792 5787 5782 5776 5770 5764 5758 5751 5745 5739 5732 5726 5719 5713 5707 5701 5695 5690
5843 5842 5842 5842 5841 5841 5841 5840 5840 5839 5838 5837 5835 5833 5831 5828 5825 5822 5819 5816 5812 5808 5805 5801 5796 5792 5787 5782 5776 5770 5764 5758 5752 5745 5739 5732 5725 5718 5711 5705 5698 5692 5686 5680
5840 5840 5839 5839 5838 5838 5838 5838 5837 5836 5835 5833 5831 5829 5827 5824 5821 5818 5815 5812 5808 5804 5801 5796 5792 5787 5782 5777 5771 5765 5758 5752 5746 5739 5732 5725 5718 5711 5704 5697 5690 5683 5677 5671
5837 5837 5837 5836 5836 5835 5835 5835 5833 5833 5831 5830 5828 5826 5823 5820 5817 5814 5811 5808 5804 5800 5796 5792 5787 5782 5777 5771 5765 5759 5753 5747 5740 5733 5726 5718 5711 5704 5696 5689 5682 5675 5668 5661
5834 5834 5834 5833 5834 5833 5834 5831 5830 5829 5828 5826 5824 5822 5819 5816 5813 5810 5807 5804 5800 5796 5792 5787 5782 5778 5772 5766 5760 5754 5748 5741 5734 5727 5719 5712 5704 5697 5689 5682 5674 5667 5659 5652
5831 5831 5831 5831 5830 5830 5830 5828 5827 5826 5824 5822 5820 5817 5815 5812 5809 5806 5803 5799 5796 5792 5787 5783 5778 5773 5767 5761 5755 5749 5742 5735 5728 5721 5713 5706 5698 5690 5683 5675 5667 5659 5651 5644
5828 5828 5829 5828 5828 5828 5828 5826 5823 5823 5821 5818 5816 5813 5810 5808 5805 5803 5799 5795 5791 5787 5783 5778 5773 5768 5762 5756 5750 5743 5736 5729 5722 5715 5707 5699 5692 5684 5676 5668 5659 5651 5644 5636
5825 5825 5825 5825 5824 5824 5824 5822 5820 5819 5817 5814 5811 5809 5806 5803 5801 5798 5794 5790 5787 5783 5778 5774 5768 5763 5757 5751 5744 5738 5731 5724 5717 5709 5701 5693 5685 5677 5669 5661 5652 5644 5637 5630
5820 5821 5821 5821 5820 5822 5819 5818 5816 5814 5811 5809 5806 5804 5801 5799 5796 5793 5789 5786 5782 5778 5773 5769 5763 5758 5752 5745 5739 5732 5725 5718 5711 5703 5695 5687 5679 5671 5663 5654 5646 5638 5631 5623
5815 5816 5816 5817 5817 5815 5814 5812 5811 5809 5807 5804 5801 5799 5796 5794 5791 5788 5784 5781 5777 5772 5768 5763 5758 5752 5746 5740 5733 5727 5720 5712 5705 5697 5689 5681 5672 5664 5656 5648 5640 5632 5625 5617
5810 5810 5810 5811 5811 5810 5808 5807 5805 5803 5801 5799 5796 5794 5791 5788 5786 5783 5779 5775 5771 5767 5762 5757 5752 5746 5740 5734 5727 5721 5714 5706 5699 5691 5683 5675 5667 5658 5650 5642 5634 5627 5619 5612
5805 5805 5804 5804 5804 5803 5803 5801 5799 5797 5795 5793 5791 5788 5786 5783 5780 5777 5773 5769 5765 5761 5756 5751 5745 5740 5734 5728 5722 5715 5708 5701 5693 5686 5678 5669 5661 5653 5645 5636 5628 5621 5614 5606
5799 5798 5797 5797 5798 5796 5796 5795 5793 5791 5789 5787 5785 5782 5779 5777 5774 5771 5767 5763 5759 5754 5749 5744 5739 5734 5728 5722 5716 5709 5702 5695 5688 5680 5672 5664 5655 5647 5639 5632 5624 5616 5609 5602